User: anonymous   Login
Location: Unspecified
(0.0000°N, 0.0000°E)
Time: 15:26:21
(UTC+00:00)
Language:

COSMOS 2468 - Orbit

View from above orbital plane
View from above orbital plane
View from above satellite
View from above satellite

Ground track
Ground track

The orbit data is extracted from the following two-line orbital elements,

1 37154U 10043C   16209.11671746  .00000028  00000-0  12970-3 0  9991
2 37154  82.4611 163.5777 0013209 269.5915  90.3647 12.43624891266948
Epoch (UTC): 27 July 2016 02:48:04
Eccentricity: 0.0013209
inclination: 82.4611°
perigee height: 1481 km
apogee height: 1501 km
right ascension of ascending node: 163.5777°
argument of perigee: 269.5915°
revolutions per day: 12.43624891
mean anomaly at epoch: 90.3647°
orbit number at epoch: 26694

The dashed part of the orbit path shows where the satellite is in the earth's shadow,  

DLR